Time,TemperatureF,DewpointF,PressureIn,WindDirection,WindDirectionDegrees,WindSpeedMPH,WindSpeedGustMPH,Humidity,HourlyPrecipIn,Conditions,Clouds,dailyrainin,SoftwareType,DateUTC
2013-11-14 00:04:00,38.3,27.9,29.85,SW,221,0.0,6.0,66,0.00,,,0.00,Wunderground v.1.15,2013-11-14 06:04:00,
2013-11-14 00:09:00,38.2,27.8,29.85,SSW,199,4.0,6.0,66,0.00,,,0.00,Wunderground v.1.15,2013-11-14 06:09:00,
2013-11-14 00:15:00,38.2,27.8,29.85,SW,229,5.0,5.0,66,0.00,,,0.00,Wunderground v.1.15,2013-11-14 06:15:00,
2013-11-14 00:21:00,38.0,28.0,29.84,SW,225,0.0,5.0,67,0.00,,,0.00,Wunderground v.1.15,2013-11-14 06:21:00,
2013-11-14 00:27:00,38.0,28.0,29.84,SSW,202,5.0,5.0,67,0.00,,,0.00,Wunderground v.1.15,2013-11-14 06:27:00,
2013-11-14 00:32:00,38.5,28.1,29.84,SW,217,3.0,4.0,66,0.00,,,0.00,Wunderground v.1.15,2013-11-14 06:32:00,
2013-11-14 00:37:00,38.6,28.2,29.83,SW,223,4.0,16.0,66,0.00,,,0.00,Wunderground v.1.15,2013-11-14 06:37:00,
2013-11-14 00:42:00,38.6,28.2,29.83,SSW,213,3.0,11.0,66,0.00,,,0.00,Wunderground v.1.15,2013-11-14 06:42:00,
2013-11-14 00:47:00,38.3,27.9,29.83,South,188,12.0,12.0,66,0.00,,,0.00,Wunderground v.1.15,2013-11-14 06:47:00,
2013-11-14 00:53:00,38.2,28.2,29.83,SW,227,2.0,10.0,67,0.00,,,0.00,Wunderground v.1.15,2013-11-14 06:53:00,
2013-11-14 00:59:00,38.2,28.2,29.83,SSW,204,2.0,10.0,67,0.00,,,0.00,Wunderground v.1.15,2013-11-14 06:59:00,
2013-11-14 01:04:00,38.2,28.2,29.83,SSW,207,3.0,5.0,67,0.00,,,0.00,Wunderground v.1.15,2013-11-14 07:04:00,
2013-11-14 01:10:00,38.0,28.0,29.83,SSW,202,9.0,9.0,67,0.00,,,0.00,Wunderground v.1.15,2013-11-14 07:10:00,
2013-11-14 01:15:00,37.9,28.3,29.83,SSW,213,2.0,9.0,68,0.00,,,0.00,Wunderground v.1.15,2013-11-14 07:15:00,
2013-11-14 01:21:00,37.8,28.5,29.82,SSW,205,1.0,9.0,69,0.00,,,0.00,Wunderground v.1.15,2013-11-14 07:21:00,
2013-11-14 01:26:00,37.8,28.5,29.82,SSW,195,5.0,10.0,69,0.00,,,0.00,Wunderground v.1.15,2013-11-14 07:26:00,
2013-11-14 01:32:00,37.6,28.3,29.82,SSW,208,2.0,4.0,69,0.00,,,0.00,Wunderground v.1.15,2013-11-14 07:32:00,
2013-11-14 01:37:00,37.6,28.3,29.81,SSW,206,5.0,6.0,69,0.00,,,0.00,Wunderground v.1.15,2013-11-14 07:37:00,
2013-11-14 01:42:00,37.5,28.2,29.81,SSW,200,4.0,5.0,69,0.00,,,0.00,Wunderground v.1.15,2013-11-14 07:42:00,
2013-11-14 01:48:00,37.5,28.2,29.81,SW,223,3.0,6.0,69,0.00,,,0.00,Wunderground v.1.15,2013-11-14 07:48:00,
2013-11-14 01:53:00,37.5,28.2,29.81,SW,227,5.0,5.0,69,0.00,,,0.00,Wunderground v.1.15,2013-11-14 07:53:00,
2013-11-14 01:58:00,37.3,28.1,29.81,SSW,212,3.0,5.0,69,0.00,,,0.00,Wunderground v.1.15,2013-11-14 07:58:00,
2013-11-14 02:03:00,37.2,28.3,29.82,WSW,254,1.0,11.0,70,0.00,,,0.00,Wunderground v.1.15,2013-11-14 08:03:00,
2013-11-14 02:08:00,37.0,28.1,29.82,WSW,242,0.0,11.0,70,0.00,,,0.00,Wunderground v.1.15,2013-11-14 08:08:00,
2013-11-14 02:13:00,36.8,28.3,29.82,SW,229,4.0,5.0,71,0.00,,,0.00,Wunderground v.1.15,2013-11-14 08:13:00,
2013-11-14 02:18:00,36.5,28.0,29.82,SW,227,5.0,5.0,71,0.00,,,0.00,Wunderground v.1.15,2013-11-14 08:18:00,
2013-11-14 02:23:00,36.5,28.3,29.82,SSW,210,4.0,7.0,72,0.00,,,0.00,Wunderground v.1.15,2013-11-14 08:23:00,
2013-11-14 02:28:00,36.3,28.1,29.82,SSW,209,0.0,7.0,72,0.00,,,0.00,Wunderground v.1.15,2013-11-14 08:28:00,
2013-11-14 02:33:00,36.2,28.4,29.81,SW,226,4.0,4.0,73,0.00,,,0.00,Wunderground v.1.15,2013-11-14 08:33:00,
2013-11-14 02:38:00,36.0,28.2,29.81,SW,232,0.0,4.0,73,0.00,,,0.00,Wunderground v.1.15,2013-11-14 08:38:00,
2013-11-14 02:43:00,36.0,28.2,29.81,WSW,252,0.0,7.0,73,0.00,,,0.00,Wunderground v.1.15,2013-11-14 08:43:00,
2013-11-14 02:48:00,36.0,28.2,29.82,WSW,242,0.0,7.0,73,0.00,,,0.00,Wunderground v.1.15,2013-11-14 08:48:00,
2013-11-14 02:53:00,36.0,28.2,29.82,SSW,206,2.0,5.0,73,0.00,,,0.00,Wunderground v.1.15,2013-11-14 08:53:00,
2013-11-14 02:58:00,35.9,28.1,29.82,SW,231,6.0,6.0,73,0.00,,,0.00,Wunderground v.1.15,2013-11-14 08:58:00,
2013-11-14 03:03:00,35.9,28.1,29.81,SW,215,1.0,5.0,73,0.00,,,0.00,Wunderground v.1.15,2013-11-14 09:03:00,
2013-11-14 03:08:00,35.9,28.1,29.81,SW,227,1.0,6.0,73,0.00,,,0.00,Wunderground v.1.15,2013-11-14 09:08:00,
2013-11-14 03:13:00,35.8,28.3,29.81,SW,227,0.0,6.0,74,0.00,,,0.00,Wunderground v.1.15,2013-11-14 09:13:00,
2013-11-14 03:18:00,35.6,28.1,29.81,SSW,208,0.0,6.0,74,0.00,,,0.00,Wunderground v.1.15,2013-11-14 09:18:00,
2013-11-14 03:23:00,35.5,28.0,29.81,SW,227,0.0,5.0,74,0.00,,,0.00,Wunderground v.1.15,2013-11-14 09:23:00,
2013-11-14 03:28:00,35.3,27.8,29.81,SW,218,3.0,6.0,74,0.00,,,0.00,Wunderground v.1.15,2013-11-14 09:28:00,
2013-11-14 03:33:00,35.0,27.9,29.82,SW,234,2.0,2.0,75,0.00,,,0.00,Wunderground v.1.15,2013-11-14 09:33:00,
2013-11-14 03:38:00,35.0,27.9,29.82,SW,231,2.0,4.0,75,0.00,,,0.00,Wunderground v.1.15,2013-11-14 09:38:00,
2013-11-14 03:44:00,34.9,27.8,29.82,SW,229,0.0,4.0,75,0.00,,,0.00,Wunderground v.1.15,2013-11-14 09:44:00,
2013-11-14 03:49:00,34.9,28.1,29.82,SW,229,0.0,4.0,76,0.00,,,0.00,Wunderground v.1.15,2013-11-14 09:49:00,
2013-11-14 03:54:00,34.7,27.9,29.82,WSW,237,0.0,6.0,76,0.00,,,0.00,Wunderground v.1.15,2013-11-14 09:54:00,
2013-11-14 03:59:00,34.6,27.8,29.82,SW,228,0.0,6.0,76,0.00,,,0.00,Wunderground v.1.15,2013-11-14 09:59:00,
2013-11-14 04:04:00,34.6,27.8,29.82,SSW,194,3.0,3.0,76,0.00,,,0.00,Wunderground v.1.15,2013-11-14 10:04:00,
2013-11-14 04:09:00,34.6,27.8,29.82,SW,216,5.0,8.0,76,0.00,,,0.00,Wunderground v.1.15,2013-11-14 10:09:00,
2013-11-14 04:14:00,34.7,27.9,29.82,West,267,1.0,6.0,76,0.00,,,0.00,Wunderground v.1.15,2013-11-14 10:14:00,
2013-11-14 04:19:00,34.6,27.8,29.82,SSW,203,1.0,6.0,76,0.00,,,0.00,Wunderground v.1.15,2013-11-14 10:19:00,
2013-11-14 04:24:00,34.6,27.8,29.82,SSW,202,2.0,6.0,76,0.00,,,0.00,Wunderground v.1.15,2013-11-14 10:24:00,
2013-11-14 04:29:00,34.6,27.8,29.82,SW,215,2.0,7.0,76,0.00,,,0.00,Wunderground v.1.15,2013-11-14 10:29:00,
2013-11-14 04:34:00,34.6,28.1,29.82,SSW,206,0.0,6.0,77,0.00,,,0.00,Wunderground v.1.15,2013-11-14 10:34:00,
2013-11-14 04:39:00,34.6,28.1,29.82,SW,217,2.0,7.0,77,0.00,,,0.00,Wunderground v.1.15,2013-11-14 10:39:00,
2013-11-14 04:44:00,34.4,27.9,29.82,SW,230,1.0,6.0,77,0.00,,,0.00,Wunderground v.1.15,2013-11-14 10:44:00,
2013-11-14 04:49:00,34.6,28.1,29.82,SSW,209,1.0,7.0,77,0.00,,,0.00,Wunderground v.1.15,2013-11-14 10:49:00,
2013-11-14 04:54:00,34.6,28.1,29.82,SSW,213,2.0,7.0,77,0.00,,,0.00,Wunderground v.1.15,2013-11-14 10:54:00,
2013-11-14 04:59:00,34.6,28.1,29.82,SSW,213,1.0,7.0,77,0.00,,,0.00,Wunderground v.1.15,2013-11-14 10:59:00,
2013-11-14 05:05:00,34.7,28.2,29.81,WSW,245,5.0,5.0,77,0.00,,,0.00,Wunderground v.1.15,2013-11-14 11:05:00,
2013-11-14 05:11:00,34.7,28.2,29.81,WSW,250,0.0,1.0,77,0.00,,,0.00,Wunderground v.1.15,2013-11-14 11:11:00,
2013-11-14 05:16:00,34.7,28.2,29.81,SSW,209,2.0,4.0,77,0.00,,,0.00,Wunderground v.1.15,2013-11-14 11:16:00,
2013-11-14 05:21:00,34.7,28.2,29.82,WSW,248,3.0,3.0,77,0.00,,,0.00,Wunderground v.1.15,2013-11-14 11:21:00,
2013-11-14 05:26:00,34.9,28.4,29.82,SW,218,0.0,4.0,77,0.00,,,0.00,Wunderground v.1.15,2013-11-14 11:26:00,
2013-11-14 05:31:00,34.7,28.2,29.82,SSW,206,5.0,5.0,77,0.00,,,0.00,Wunderground v.1.15,2013-11-14 11:31:00,
2013-11-14 05:37:00,34.7,28.5,29.82,SSW,197,2.0,5.0,78,0.00,,,0.00,Wunderground v.1.15,2013-11-14 11:37:00,
2013-11-14 05:43:00,34.7,28.5,29.82,SW,229,1.0,2.0,78,0.00,,,0.00,Wunderground v.1.15,2013-11-14 11:43:00,
2013-11-14 05:49:00,34.9,28.7,29.81,SW,230,0.0,2.0,78,0.00,,,0.00,Wunderground v.1.15,2013-11-14 11:49:00,
2013-11-14 05:54:00,34.9,28.7,29.81,SW,230,0.0,1.0,78,0.00,,,0.00,Wunderground v.1.15,2013-11-14 11:54:00,
2013-11-14 06:00:00,34.9,28.7,29.81,West,266,0.0,2.0,78,0.00,,,0.00,Wunderground v.1.15,2013-11-14 12:00:00,
2013-11-14 06:06:00,35.0,28.8,29.82,West,265,0.0,1.0,78,0.00,,,0.00,Wunderground v.1.15,2013-11-14 12:06:00,
2013-11-14 06:12:00,35.0,28.8,29.82,West,265,0.0,1.0,78,0.00,,,0.00,Wunderground v.1.15,2013-11-14 12:12:00,
2013-11-14 06:18:00,35.0,28.8,29.81,West,259,2.0,3.0,78,0.00,,,0.00,Wunderground v.1.15,2013-11-14 12:18:00,
2013-11-14 06:24:00,34.9,28.7,29.81,West,259,0.0,1.0,78,0.00,,,0.00,Wunderground v.1.15,2013-11-14 12:24:00,
2013-11-14 06:29:00,34.7,28.9,29.81,West,260,1.0,5.0,79,0.00,,,0.00,Wunderground v.1.15,2013-11-14 12:29:00,
2013-11-14 06:34:00,34.6,28.8,29.82,West,263,4.0,5.0,79,0.00,,,0.00,Wunderground v.1.15,2013-11-14 12:34:00,
2013-11-14 06:39:00,34.6,28.8,29.82,WNW,286,4.0,10.0,79,0.00,,,0.00,Wunderground v.1.15,2013-11-14 12:39:00,
2013-11-14 06:44:00,34.4,28.6,29.82,West,267,3.0,9.0,79,0.00,,,0.00,Wunderground v.1.15,2013-11-14 12:44:00,
2013-11-14 06:49:00,34.3,28.5,29.83,West,261,3.0,11.0,79,0.00,,,0.00,Wunderground v.1.15,2013-11-14 12:49:00,
2013-11-14 06:54:00,34.3,28.5,29.83,WSW,257,3.0,5.0,79,0.00,,,0.00,Wunderground v.1.15,2013-11-14 12:54:00,
2013-11-14 06:59:00,34.1,28.3,29.83,West,261,1.0,6.0,79,0.00,,,0.00,Wunderground v.1.15,2013-11-14 12:59:00,
2013-11-14 07:05:00,34.1,28.6,29.83,WSW,255,1.0,4.0,80,0.00,,,0.00,Wunderground v.1.15,2013-11-14 13:05:00,
2013-11-14 07:10:00,34.3,28.8,29.83,WSW,255,6.0,6.0,80,0.00,,,0.00,Wunderground v.1.15,2013-11-14 13:10:00,
2013-11-14 07:15:00,34.3,28.8,29.83,West,270,6.0,10.0,80,0.00,,,0.00,Wunderground v.1.15,2013-11-14 13:15:00,
2013-11-14 07:20:00,34.1,28.6,29.84,WSW,256,4.0,5.0,80,0.00,,,0.00,Wunderground v.1.15,2013-11-14 13:20:00,
2013-11-14 07:25:00,34.1,28.9,29.84,WSW,256,0.0,9.0,81,0.00,,,0.00,Wunderground v.1.15,2013-11-14 13:25:00,
2013-11-14 07:30:00,34.3,29.1,29.84,WSW,241,0.0,2.0,81,0.00,,,0.00,Wunderground v.1.15,2013-11-14 13:30:00,
2013-11-14 07:35:00,34.4,29.2,29.83,WSW,254,3.0,5.0,81,0.00,,,0.00,Wunderground v.1.15,2013-11-14 13:35:00,
2013-11-14 07:40:00,34.6,29.4,29.83,WSW,254,1.0,3.0,81,0.00,,,0.00,Wunderground v.1.15,2013-11-14 13:40:00,
2013-11-14 07:45:00,34.9,29.7,29.83,WSW,256,0.0,4.0,81,0.00,,,0.00,Wunderground v.1.15,2013-11-14 13:45:00,
2013-11-14 07:50:00,35.0,29.8,29.83,WSW,256,0.0,2.0,81,0.00,,,0.00,Wunderground v.1.15,2013-11-14 13:50:00,
2013-11-14 07:55:00,35.0,29.8,29.83,West,275,2.0,5.0,81,0.00,,,0.00,Wunderground v.1.15,2013-11-14 13:55:00,
2013-11-14 08:00:00,35.3,30.1,29.83,West,273,0.0,1.0,81,0.00,,,0.00,Wunderground v.1.15,2013-11-14 14:00:00,
2013-11-14 08:06:00,35.3,30.1,29.83,WSW,244,0.0,4.0,81,0.00,,,0.00,Wunderground v.1.15,2013-11-14 14:06:00,
2013-11-14 08:11:00,35.5,30.2,29.83,WSW,243,0.0,4.0,81,0.00,,,0.00,Wunderground v.1.15,2013-11-14 14:11:00,
2013-11-14 08:16:00,35.8,30.5,29.83,West,261,0.0,5.0,81,0.00,,,0.00,Wunderground v.1.15,2013-11-14 14:16:00,
2013-11-14 08:21:00,36.0,30.7,29.84,WSW,255,1.0,5.0,81,0.00,,,0.00,Wunderground v.1.15,2013-11-14 14:21:00,
2013-11-14 08:26:00,36.3,30.7,29.84,WSW,258,7.0,7.0,80,0.00,,,0.00,Wunderground v.1.15,2013-11-14 14:26:00,
2013-11-14 08:31:00,36.5,30.9,29.84,West,265,5.0,8.0,80,0.00,,,0.00,Wunderground v.1.15,2013-11-14 14:31:00,
2013-11-14 08:36:00,36.8,31.2,29.84,West,260,0.0,8.0,80,0.00,,,0.00,Wunderground v.1.15,2013-11-14 14:36:00,
2013-11-14 08:41:00,37.0,31.4,29.84,West,260,0.0,1.0,80,0.00,,,0.00,Wunderground v.1.15,2013-11-14 14:41:00,
2013-11-14 08:46:00,37.2,31.3,29.84,WSW,250,0.0,5.0,79,0.00,,,0.00,Wunderground v.1.15,2013-11-14 14:46:00,
2013-11-14 08:47:00,37.2,31.3,29.84,WSW,250,0.0,5.0,79,0.00,,,0.00,Wunderground v.1.15,2013-11-14 14:47:00,
2013-11-14 08:52:00,37.5,31.6,29.84,SW,216,3.0,3.0,79,0.00,,,0.00,Wunderground v.1.15,2013-11-14 14:52:00,
2013-11-14 08:57:00,37.6,31.4,29.84,SW,216,0.0,3.0,78,0.00,,,0.00,Wunderground v.1.15,2013-11-14 14:57:00,
2013-11-14 09:02:00,37.8,31.6,29.84,SW,221,3.0,3.0,78,0.00,,,0.00,Wunderground v.1.15,2013-11-14 15:02:00,
2013-11-14 09:07:00,37.9,31.7,29.84,SW,217,0.0,4.0,78,0.00,,,0.00,Wunderground v.1.15,2013-11-14 15:07:00,
2013-11-14 09:12:00,38.2,31.9,29.84,SW,217,0.0,3.0,78,0.00,,,0.00,Wunderground v.1.15,2013-11-14 15:12:00,
2013-11-14 09:17:00,38.5,32.2,29.84,SW,217,0.0,4.0,78,0.00,,,0.00,Wunderground v.1.15,2013-11-14 15:17:00,
2013-11-14 09:22:00,38.6,32.3,29.84,SSW,211,0.0,2.0,78,0.00,,,0.00,Wunderground v.1.15,2013-11-14 15:22:00,
2013-11-14 09:27:00,38.8,32.5,29.84,SSW,212,0.0,2.0,78,0.00,,,0.00,Wunderground v.1.15,2013-11-14 15:27:00,
2013-11-14 09:32:00,38.8,32.5,29.84,SW,214,0.0,4.0,78,0.00,,,0.00,Wunderground v.1.15,2013-11-14 15:32:00,
2013-11-14 09:37:00,38.8,32.5,29.84,SW,214,0.0,4.0,78,0.00,,,0.00,Wunderground v.1.15,2013-11-14 15:37:00,
2013-11-14 09:42:00,38.8,32.8,29.84,SW,219,1.0,3.0,79,0.00,,,0.00,Wunderground v.1.15,2013-11-14 15:42:00,
2013-11-14 09:47:00,38.9,32.9,29.84,SW,234,0.0,6.0,79,0.00,,,0.00,Wunderground v.1.15,2013-11-14 15:47:00,
2013-11-14 09:52:00,39.2,33.2,29.85,SW,236,0.0,4.0,79,0.00,,,0.00,Wunderground v.1.15,2013-11-14 15:52:00,
2013-11-14 09:57:00,39.2,33.5,29.85,SW,215,0.0,4.0,80,0.00,,,0.00,Wunderground v.1.15,2013-11-14 15:57:00,
2013-11-14 10:02:00,39.3,33.6,29.85,WSW,241,1.0,6.0,80,0.00,,,0.00,Wunderground v.1.15,2013-11-14 16:02:00,
2013-11-14 10:07:00,39.3,33.6,29.85,SW,229,0.0,6.0,80,0.00,,,0.00,Wunderground v.1.15,2013-11-14 16:07:00,
2013-11-14 10:12:00,39.3,34.0,29.85,WSW,245,0.0,3.0,81,0.00,,,0.00,Wunderground v.1.15,2013-11-14 16:12:00,
2013-11-14 10:17:00,39.3,34.0,29.85,SSW,208,0.0,6.0,81,0.00,,,0.00,Wunderground v.1.15,2013-11-14 16:17:00,
2013-11-14 10:22:00,39.5,34.5,29.85,SSW,208,0.0,2.0,82,0.00,,,0.00,Wunderground v.1.15,2013-11-14 16:22:00,
2013-11-14 10:27:00,39.8,34.8,29.85,SW,214,4.0,11.0,82,0.00,,,0.00,Wunderground v.1.15,2013-11-14 16:27:00,
2013-11-14 10:32:00,39.9,35.2,29.85,SW,215,0.0,2.0,83,0.00,,,0.00,Wunderground v.1.15,2013-11-14 16:32:00,
2013-11-14 10:37:00,40.1,35.4,29.84,SW,217,3.0,4.0,83,0.00,,,0.00,Wunderground v.1.15,2013-11-14 16:37:00,
2013-11-14 10:42:00,40.3,35.2,29.84,West,266,0.0,3.0,82,0.00,,,0.00,Wunderground v.1.15,2013-11-14 16:42:00,
2013-11-14 10:47:00,40.5,35.4,29.85,West,265,0.0,5.0,82,0.00,,,0.00,Wunderground v.1.15,2013-11-14 16:47:00,
2013-11-14 10:52:00,40.8,36.0,29.85,West,265,0.0,1.0,83,0.00,,,0.00,Wunderground v.1.15,2013-11-14 16:52:00,
2013-11-14 10:57:00,40.9,36.4,29.85,West,265,0.0,1.0,84,0.00,,,0.00,Wunderground v.1.15,2013-11-14 16:57:00,
2013-11-14 11:02:00,40.9,36.4,29.83,West,265,0.0,0.0,84,0.00,,,0.01,Wunderground v.1.15,2013-11-14 17:02:00,
2013-11-14 11:07:00,41.1,36.9,29.83,WSW,247,2.0,2.0,85,0.00,,,0.01,Wunderground v.1.15,2013-11-14 17:07:00,
2013-11-14 11:12:00,41.2,37.0,29.83,WSW,247,1.0,3.0,85,0.00,,,0.01,Wunderground v.1.15,2013-11-14 17:12:00,
2013-11-14 11:17:00,41.3,37.1,29.83,WSW,247,0.0,3.0,85,0.00,,,0.01,Wunderground v.1.15,2013-11-14 17:17:00,
2013-11-14 11:22:00,41.5,37.3,29.83,WSW,247,0.0,1.0,85,0.00,,,0.01,Wunderground v.1.15,2013-11-14 17:22:00,
2013-11-14 11:27:00,41.5,37.3,29.83,SW,221,2.0,5.0,85,0.00,,,0.01,Wunderground v.1.15,2013-11-14 17:27:00,
2013-11-14 11:32:00,41.5,37.3,29.81,SSW,210,0.0,3.0,85,0.00,,,0.01,Wunderground v.1.15,2013-11-14 17:32:00,
2013-11-14 11:37:00,41.5,37.0,29.81,SSW,213,0.0,3.0,84,0.00,,,0.01,Wunderground v.1.15,2013-11-14 17:37:00,
2013-11-14 11:42:00,41.6,37.4,29.81,SSW,209,2.0,2.0,85,0.00,,,0.01,Wunderground v.1.15,2013-11-14 17:42:00,
2013-11-14 11:47:00,41.8,37.3,29.80,SSW,208,0.0,4.0,84,0.00,,,0.01,Wunderground v.1.15,2013-11-14 17:47:00,
2013-11-14 11:52:00,41.9,37.4,29.80,SSW,209,0.0,1.0,84,0.00,,,0.01,Wunderground v.1.15,2013-11-14 17:52:00,
2013-11-14 11:57:00,42.1,37.6,29.80,WSW,257,3.0,3.0,84,0.00,,,0.01,Wunderground v.1.15,2013-11-14 17:57:00,
2013-11-14 12:02:00,42.2,37.7,29.80,West,269,5.0,6.0,84,0.00,,,0.01,Wunderground v.1.15,2013-11-14 18:02:00,
2013-11-14 12:07:00,42.3,37.8,29.80,West,268,3.0,9.0,84,0.00,,,0.01,Wunderground v.1.15,2013-11-14 18:07:00,
2013-11-14 12:12:00,42.3,37.8,29.80,WSW,254,0.0,4.0,84,0.00,,,0.01,Wunderground v.1.15,2013-11-14 18:12:00,
2013-11-14 12:17:00,42.5,37.7,29.80,West,273,1.0,7.0,83,0.00,,,0.01,Wunderground v.1.15,2013-11-14 18:17:00,
2013-11-14 12:22:00,42.6,37.5,29.80,West,264,0.0,6.0,82,0.00,,,0.01,Wunderground v.1.15,2013-11-14 18:22:00,
2013-11-14 12:27:00,42.8,37.7,29.80,West,265,0.0,6.0,82,0.00,,,0.01,Wunderground v.1.15,2013-11-14 18:27:00,
2013-11-14 12:32:00,42.8,37.7,29.79,West,272,4.0,7.0,82,0.00,,,0.01,Wunderground v.1.15,2013-11-14 18:32:00,
2013-11-14 12:37:00,42.9,37.8,29.79,West,259,2.0,8.0,82,0.00,,,0.01,Wunderground v.1.15,2013-11-14 18:37:00,
2013-11-14 12:42:00,43.2,38.1,29.79,West,262,0.0,5.0,82,0.00,,,0.01,Wunderground v.1.15,2013-11-14 18:42:00,
2013-11-14 12:47:00,43.5,38.4,29.78,West,259,1.0,5.0,82,0.00,,,0.01,Wunderground v.1.15,2013-11-14 18:47:00,
2013-11-14 12:52:00,43.9,38.1,29.78,WSW,254,4.0,10.0,80,0.00,,,0.01,Wunderground v.1.15,2013-11-14 18:52:00,
2013-11-14 12:57:00,44.5,38.7,29.78,WSW,258,3.0,10.0,80,0.00,,,0.01,Wunderground v.1.15,2013-11-14 18:57:00,
2013-11-14 13:02:00,44.9,38.8,29.77,West,259,3.0,6.0,79,0.00,,,0.01,Wunderground v.1.15,2013-11-14 19:02:00,
2013-11-14 13:07:00,45.4,39.3,29.77,West,260,0.0,7.0,79,0.00,,,0.01,Wunderground v.1.15,2013-11-14 19:07:00,
2013-11-14 13:12:00,46.0,39.2,29.77,West,263,4.0,10.0,77,0.00,,,0.01,Wunderground v.1.15,2013-11-14 19:12:00,
2013-11-14 13:17:00,46.5,39.3,29.77,West,275,3.0,11.0,76,0.00,,,0.01,Wunderground v.1.15,2013-11-14 19:17:00,
2013-11-14 13:22:00,47.1,39.2,29.77,West,263,4.0,9.0,74,0.00,,,0.01,Wunderground v.1.15,2013-11-14 19:22:00,
2013-11-14 13:27:00,47.6,39.7,29.77,West,267,2.0,9.0,74,0.00,,,0.01,Wunderground v.1.15,2013-11-14 19:27:00,
2013-11-14 13:32:00,48.3,40.0,29.76,WSW,250,5.0,6.0,73,0.00,,,0.01,Wunderground v.1.15,2013-11-14 19:32:00,
2013-11-14 13:37:00,49.1,40.5,29.76,WSW,242,0.0,6.0,72,0.00,,,0.01,Wunderground v.1.15,2013-11-14 19:37:00,
2013-11-14 13:42:00,49.8,40.8,29.76,SW,228,0.0,3.0,71,0.00,,,0.01,Wunderground v.1.15,2013-11-14 19:42:00,
2013-11-14 13:47:00,50.4,40.6,29.75,West,262,3.0,4.0,69,0.00,,,0.01,Wunderground v.1.15,2013-11-14 19:47:00,
2013-11-14 13:52:00,50.7,40.5,29.75,WSW,246,3.0,6.0,68,0.00,,,0.01,Wunderground v.1.15,2013-11-14 19:52:00,
2013-11-14 13:57:00,50.8,40.6,29.75,WSW,240,0.0,6.0,68,0.00,,,0.01,Wunderground v.1.15,2013-11-14 19:57:00,
2013-11-14 14:02:00,50.8,40.6,29.75,WSW,248,3.0,5.0,68,0.00,,,0.01,Wunderground v.1.15,2013-11-14 20:02:00,
2013-11-14 14:08:00,50.8,40.6,29.75,West,260,4.0,7.0,68,0.00,,,0.01,Wunderground v.1.15,2013-11-14 20:08:00,
2013-11-14 14:13:00,51.0,40.8,29.75,West,263,3.0,5.0,68,0.00,,,0.01,Wunderground v.1.15,2013-11-14 20:13:00,
2013-11-14 14:18:00,51.0,39.6,29.76,WNW,282,7.0,12.0,65,0.00,,,0.01,Wunderground v.1.15,2013-11-14 20:18:00,
2013-11-14 14:23:00,50.8,40.2,29.76,WNW,282,1.0,9.0,67,0.00,,,0.01,Wunderground v.1.15,2013-11-14 20:23:00,
2013-11-14 14:28:00,51.0,40.4,29.76,West,280,6.0,10.0,67,0.00,,,0.01,Wunderground v.1.15,2013-11-14 20:28:00,
2013-11-14 14:33:00,51.1,40.5,29.76,WSW,258,7.0,10.0,67,0.00,,,0.01,Wunderground v.1.15,2013-11-14 20:33:00,
2013-11-14 14:38:00,51.7,39.9,29.76,West,279,6.0,10.0,64,0.00,,,0.01,Wunderground v.1.15,2013-11-14 20:38:00,
2013-11-14 14:43:00,52.0,40.2,29.76,West,271,12.0,12.0,64,0.00,,,0.01,Wunderground v.1.15,2013-11-14 20:43:00,
2013-11-14 14:48:00,52.2,40.0,29.75,West,271,9.0,13.0,63,0.00,,,0.01,Wunderground v.1.15,2013-11-14 20:48:00,
2013-11-14 14:53:00,52.3,40.5,29.75,West,273,7.0,11.0,64,0.00,,,0.01,Wunderground v.1.15,2013-11-14 20:53:00,
2013-11-14 14:58:00,52.6,40.8,29.75,WNW,282,6.0,11.0,64,0.00,,,0.01,Wunderground v.1.15,2013-11-14 20:58:00,
2013-11-14 15:03:00,52.9,40.6,29.75,WNW,294,5.0,8.0,63,0.00,,,0.01,Wunderground v.1.15,2013-11-14 21:03:00,
2013-11-14 15:08:00,53.3,40.2,29.75,West,273,3.0,10.0,61,0.00,,,0.01,Wunderground v.1.15,2013-11-14 21:08:00,
2013-11-14 15:13:00,53.6,40.5,29.75,WNW,292,5.0,9.0,61,0.00,,,0.01,Wunderground v.1.15,2013-11-14 21:13:00,
2013-11-14 15:18:00,53.8,40.2,29.75,WSW,242,9.0,12.0,60,0.00,,,0.01,Wunderground v.1.15,2013-11-14 21:18:00,
2013-11-14 15:23:00,53.8,40.2,29.75,WSW,257,7.0,12.0,60,0.00,,,0.01,Wunderground v.1.15,2013-11-14 21:23:00,
2013-11-14 15:28:00,53.9,39.9,29.75,West,281,5.0,12.0,59,0.00,,,0.01,Wunderground v.1.15,2013-11-14 21:28:00,
2013-11-14 15:33:00,53.9,39.9,29.75,WSW,254,4.0,11.0,59,0.00,,,0.01,Wunderground v.1.15,2013-11-14 21:33:00,
2013-11-14 15:38:00,53.9,39.9,29.75,WSW,256,3.0,11.0,59,0.00,,,0.01,Wunderground v.1.15,2013-11-14 21:38:00,
2013-11-14 15:43:00,53.8,40.2,29.75,West,263,1.0,7.0,60,0.00,,,0.01,Wunderground v.1.15,2013-11-14 21:43:00,
2013-11-14 15:48:00,53.6,40.0,29.75,WSW,242,5.0,10.0,60,0.00,,,0.01,Wunderground v.1.15,2013-11-14 21:48:00,
2013-11-14 15:53:00,53.5,39.9,29.75,SW,217,1.0,11.0,60,0.00,,,0.01,Wunderground v.1.15,2013-11-14 21:53:00,
2013-11-14 15:58:00,53.3,40.2,29.75,WSW,249,1.0,11.0,61,0.00,,,0.01,Wunderground v.1.15,2013-11-14 21:58:00,
2013-11-14 16:03:00,53.2,40.1,29.76,WSW,249,0.0,3.0,61,0.00,,,0.01,Wunderground v.1.15,2013-11-14 22:03:00,
2013-11-14 16:08:00,52.9,40.2,29.76,WSW,240,2.0,4.0,62,0.00,,,0.01,Wunderground v.1.15,2013-11-14 22:08:00,
2013-11-14 16:13:00,52.8,40.1,29.76,WSW,245,0.0,2.0,62,0.00,,,0.01,Wunderground v.1.15,2013-11-14 22:13:00,
2013-11-14 16:18:00,52.5,40.3,29.76,WSW,256,4.0,5.0,63,0.00,,,0.01,Wunderground v.1.15,2013-11-14 22:18:00,
2013-11-14 16:23:00,52.3,40.5,29.76,WSW,254,0.0,3.0,64,0.00,,,0.01,Wunderground v.1.15,2013-11-14 22:23:00,
2013-11-14 16:28:00,51.9,40.1,29.76,WSW,240,0.0,3.0,64,0.00,,,0.01,Wunderground v.1.15,2013-11-14 22:28:00,
2013-11-14 16:33:00,51.6,39.8,29.76,WSW,240,0.0,2.0,64,0.00,,,0.01,Wunderground v.1.15,2013-11-14 22:33:00,
2013-11-14 16:38:00,51.3,39.9,29.76,WSW,243,0.0,3.0,65,0.00,,,0.01,Wunderground v.1.15,2013-11-14 22:38:00,
2013-11-14 16:43:00,51.0,39.6,29.76,WSW,244,1.0,3.0,65,0.00,,,0.01,Wunderground v.1.15,2013-11-14 22:43:00,
2013-11-14 16:48:00,50.8,39.5,29.77,WSW,244,0.0,3.0,65,0.00,,,0.01,Wunderground v.1.15,2013-11-14 22:48:00,
2013-11-14 16:53:00,50.5,39.2,29.77,WSW,244,0.0,0.0,65,0.00,,,0.01,Wunderground v.1.15,2013-11-14 22:53:00,
2013-11-14 16:58:00,50.1,38.8,29.77,WSW,244,0.0,2.0,65,0.00,,,0.01,Wunderground v.1.15,2013-11-14 22:58:00,
2013-11-14 17:03:00,49.6,38.3,29.77,WSW,244,0.0,3.0,65,0.00,,,0.01,Wunderground v.1.15,2013-11-14 23:03:00,
2013-11-14 17:08:00,49.4,38.1,29.77,WSW,244,2.0,4.0,65,0.00,,,0.01,Wunderground v.1.15,2013-11-14 23:08:00,
2013-11-14 17:13:00,49.2,37.9,29.77,WSW,244,1.0,4.0,65,0.00,,,0.01,Wunderground v.1.15,2013-11-14 23:13:00,
2013-11-14 17:18:00,48.9,37.6,29.77,WSW,244,1.0,4.0,65,0.00,,,0.01,Wunderground v.1.15,2013-11-14 23:18:00,
2013-11-14 17:23:00,48.6,37.4,29.77,WSW,245,2.0,5.0,65,0.00,,,0.01,Wunderground v.1.15,2013-11-14 23:23:00,
2013-11-14 17:28:00,48.5,37.7,29.77,WSW,245,0.0,5.0,66,0.00,,,0.01,Wunderground v.1.15,2013-11-14 23:28:00,
2013-11-14 17:33:00,48.2,37.4,29.78,WSW,246,1.0,6.0,66,0.00,,,0.01,Wunderground v.1.15,2013-11-14 23:33:00,
2013-11-14 17:39:00,47.7,37.3,29.78,WSW,246,4.0,6.0,67,0.00,,,0.01,Wunderground v.1.15,2013-11-14 23:39:00,
2013-11-14 17:44:00,47.7,37.3,29.78,West,270,5.0,7.0,67,0.00,,,0.01,Wunderground v.1.15,2013-11-14 23:44:00,
2013-11-14 17:49:00,48.0,36.8,29.78,West,271,4.0,7.0,65,0.00,,,0.01,Wunderground v.1.15,2013-11-14 23:49:00,
2013-11-14 17:54:00,47.9,36.7,29.78,WNW,290,5.0,8.0,65,0.00,,,0.01,Wunderground v.1.15,2013-11-14 23:54:00,
2013-11-14 17:59:00,47.4,36.6,29.78,West,278,2.0,8.0,66,0.00,,,0.01,Wunderground v.1.15,2013-11-14 23:59:00,
2013-11-14 18:04:00,47.0,36.6,29.79,West,279,4.0,6.0,67,0.00,,,0.01,Wunderground v.1.15,2013-11-15 00:04:00,
2013-11-14 18:09:00,46.7,36.3,29.79,West,272,4.0,7.0,67,0.00,,,0.01,Wunderground v.1.15,2013-11-15 00:09:00,
2013-11-14 18:14:00,46.5,36.1,29.79,West,279,5.0,6.0,67,0.00,,,0.01,Wunderground v.1.15,2013-11-15 00:14:00,
2013-11-14 18:19:00,46.2,35.8,29.79,West,276,4.0,6.0,67,0.00,,,0.01,Wunderground v.1.15,2013-11-15 00:19:00,
2013-11-14 18:24:00,46.1,36.1,29.79,West,274,5.0,5.0,68,0.00,,,0.01,Wunderground v.1.15,2013-11-15 00:24:00,
2013-11-14 18:29:00,45.7,35.7,29.79,West,276,0.0,6.0,68,0.00,,,0.01,Wunderground v.1.15,2013-11-15 00:29:00,
2013-11-14 18:34:00,45.4,35.8,29.79,West,275,3.0,4.0,69,0.00,,,0.01,Wunderground v.1.15,2013-11-15 00:34:00,
2013-11-14 18:39:00,45.1,35.5,29.79,West,275,2.0,4.0,69,0.00,,,0.01,Wunderground v.1.15,2013-11-15 00:39:00,
2013-11-14 18:44:00,44.8,35.6,29.79,West,264,3.0,6.0,70,0.00,,,0.01,Wunderground v.1.15,2013-11-15 00:44:00,
2013-11-14 18:49:00,44.6,35.4,29.80,West,270,3.0,6.0,70,0.00,,,0.01,Wunderground v.1.15,2013-11-15 00:49:00,
2013-11-14 18:54:00,44.6,35.8,29.80,West,268,0.0,5.0,71,0.00,,,0.01,Wunderground v.1.15,2013-11-15 00:54:00,
2013-11-14 18:59:00,44.5,35.7,29.80,WNW,286,5.0,6.0,71,0.00,,,0.01,Wunderground v.1.15,2013-11-15 00:59:00,
2013-11-14 19:04:00,44.5,35.7,29.80,WNW,287,0.0,5.0,71,0.00,,,0.01,Wunderground v.1.15,2013-11-15 01:04:00,
2013-11-14 19:09:00,44.2,35.4,29.80,WNW,286,3.0,5.0,71,0.00,,,0.01,Wunderground v.1.15,2013-11-15 01:09:00,
2013-11-14 19:14:00,44.2,35.4,29.80,West,279,1.0,6.0,71,0.00,,,0.01,Wunderground v.1.15,2013-11-15 01:14:00,
2013-11-14 19:19:00,44.2,35.4,29.81,West,272,4.0,6.0,71,0.00,,,0.01,Wunderground v.1.15,2013-11-15 01:19:00,
2013-11-14 19:24:00,44.1,35.3,29.81,WNW,283,4.0,7.0,71,0.00,,,0.01,Wunderground v.1.15,2013-11-15 01:24:00,
2013-11-14 19:29:00,43.9,35.1,29.81,West,265,5.0,7.0,71,0.00,,,0.01,Wunderground v.1.15,2013-11-15 01:29:00,
2013-11-14 19:34:00,43.6,35.2,29.81,West,268,2.0,4.0,72,0.00,,,0.01,Wunderground v.1.15,2013-11-15 01:34:00,
2013-11-14 19:39:00,43.3,34.9,29.81,West,268,0.0,4.0,72,0.00,,,0.01,Wunderground v.1.15,2013-11-15 01:39:00,
2013-11-14 19:44:00,43.1,35.0,29.81,West,269,0.0,1.0,73,0.00,,,0.01,Wunderground v.1.15,2013-11-15 01:44:00,
2013-11-14 19:49:00,42.6,34.5,29.81,West,268,0.0,1.0,73,0.00,,,0.01,Wunderground v.1.15,2013-11-15 01:49:00,
2013-11-14 19:54:00,42.2,34.5,29.81,West,269,4.0,4.0,74,0.00,,,0.01,Wunderground v.1.15,2013-11-15 01:54:00,
2013-11-14 19:59:00,41.8,34.5,29.81,WNW,285,2.0,6.0,75,0.00,,,0.01,Wunderground v.1.15,2013-11-15 01:59:00,
2013-11-14 20:05:00,41.5,34.2,29.81,West,279,1.0,5.0,75,0.00,,,0.01,Wunderground v.1.15,2013-11-15 02:05:00,
2013-11-14 20:10:00,41.5,34.5,29.81,WNW,296,3.0,3.0,76,0.00,,,0.01,Wunderground v.1.15,2013-11-15 02:10:00,
2013-11-14 20:15:00,41.3,34.3,29.81,WNW,296,0.0,4.0,76,0.00,,,0.01,Wunderground v.1.15,2013-11-15 02:15:00,
2013-11-14 20:20:00,41.2,34.2,29.81,WNW,296,0.0,0.0,76,0.00,,,0.01,Wunderground v.1.15,2013-11-15 02:20:00,
2013-11-14 20:25:00,40.9,33.9,29.81,WNW,296,0.0,0.0,76,0.00,,,0.01,Wunderground v.1.15,2013-11-15 02:25:00,
2013-11-14 20:30:00,40.5,33.9,29.81,WNW,296,0.0,0.0,77,0.00,,,0.01,Wunderground v.1.15,2013-11-15 02:30:00,
2013-11-14 20:35:00,39.6,33.3,29.81,WNW,296,0.0,0.0,78,0.00,,,0.01,Wunderground v.1.15,2013-11-15 02:35:00,
2013-11-14 20:40:00,39.2,33.2,29.81,WNW,296,0.0,0.0,79,0.00,,,0.01,Wunderground v.1.15,2013-11-15 02:40:00,
2013-11-14 20:45:00,39.2,33.5,29.81,WNW,296,0.0,0.0,80,0.00,,,0.01,Wunderground v.1.15,2013-11-15 02:45:00,
2013-11-14 20:50:00,39.5,33.8,29.81,WNW,296,0.0,0.0,80,0.00,,,0.01,Wunderground v.1.15,2013-11-15 02:50:00,
2013-11-14 20:55:00,39.6,33.6,29.81,WNW,296,0.0,0.0,79,0.00,,,0.01,Wunderground v.1.15,2013-11-15 02:55:00,
2013-11-14 21:00:00,39.8,33.8,29.81,WNW,296,0.0,0.0,79,0.00,,,0.01,Wunderground v.1.15,2013-11-15 03:00:00,
2013-11-14 21:05:00,39.8,33.8,29.81,WNW,296,0.0,0.0,79,0.00,,,0.01,Wunderground v.1.15,2013-11-15 03:05:00,
2013-11-14 21:10:00,39.6,33.6,29.81,WNW,296,0.0,0.0,79,0.00,,,0.01,Wunderground v.1.15,2013-11-15 03:10:00,
2013-11-14 21:15:00,39.6,33.6,29.81,WNW,296,3.0,3.0,79,0.00,,,0.01,Wunderground v.1.15,2013-11-15 03:15:00,
2013-11-14 21:20:00,39.6,33.6,29.82,WNW,292,2.0,3.0,79,0.00,,,0.01,Wunderground v.1.15,2013-11-15 03:20:00,
2013-11-14 21:25:00,39.8,33.8,29.82,WNW,297,2.0,4.0,79,0.00,,,0.01,Wunderground v.1.15,2013-11-15 03:25:00,
2013-11-14 21:30:00,39.8,33.5,29.82,WNW,297,0.0,2.0,78,0.00,,,0.01,Wunderground v.1.15,2013-11-15 03:30:00,
2013-11-14 21:35:00,39.8,33.5,29.82,WNW,297,0.0,2.0,78,0.00,,,0.01,Wunderground v.1.15,2013-11-15 03:35:00,
2013-11-14 21:40:00,39.9,33.6,29.82,WNW,297,0.0,0.0,78,0.00,,,0.01,Wunderground v.1.15,2013-11-15 03:40:00,
2013-11-14 21:45:00,39.9,33.6,29.82,WNW,297,0.0,0.0,78,0.00,,,0.01,Wunderground v.1.15,2013-11-15 03:45:00,
2013-11-14 21:50:00,39.9,33.6,29.82,WNW,297,0.0,0.0,78,0.00,,,0.01,Wunderground v.1.15,2013-11-15 03:50:00,
2013-11-14 21:55:00,39.9,33.6,29.82,WNW,297,0.0,0.0,78,0.00,,,0.01,Wunderground v.1.15,2013-11-15 03:55:00,
2013-11-14 22:00:00,39.9,33.6,29.82,WNW,297,0.0,0.0,78,0.00,,,0.01,Wunderground v.1.15,2013-11-15 04:00:00,
2013-11-14 22:05:00,39.9,33.6,29.81,WNW,297,0.0,0.0,78,0.00,,,0.01,Wunderground v.1.15,2013-11-15 04:05:00,
2013-11-14 22:10:00,39.8,33.5,29.81,WNW,297,0.0,0.0,78,0.00,,,0.01,Wunderground v.1.15,2013-11-15 04:10:00,
2013-11-14 22:15:00,39.6,33.3,29.81,WNW,297,0.0,0.0,78,0.00,,,0.01,Wunderground v.1.15,2013-11-15 04:15:00,
2013-11-14 22:20:00,39.9,33.9,29.81,WNW,297,0.0,0.0,79,0.00,,,0.01,Wunderground v.1.15,2013-11-15 04:20:00,
2013-11-14 22:25:00,40.2,33.9,29.81,WNW,297,0.0,0.0,78,0.00,,,0.01,Wunderground v.1.15,2013-11-15 04:25:00,
2013-11-14 22:30:00,40.2,33.9,29.81,WNW,297,0.0,0.0,78,0.00,,,0.01,Wunderground v.1.15,2013-11-15 04:30:00,
2013-11-14 22:35:00,40.1,33.8,29.81,WNW,297,0.0,0.0,78,0.00,,,0.01,Wunderground v.1.15,2013-11-15 04:35:00,
2013-11-14 22:40:00,39.8,33.5,29.81,WNW,297,0.0,0.0,78,0.00,,,0.01,Wunderground v.1.15,2013-11-15 04:40:00,
2013-11-14 22:45:00,39.5,33.2,29.81,WNW,297,0.0,0.0,78,0.00,,,0.01,Wunderground v.1.15,2013-11-15 04:45:00,
2013-11-14 22:50:00,38.8,32.8,29.80,WNW,297,0.0,0.0,79,0.00,,,0.01,Wunderground v.1.15,2013-11-15 04:50:00,
2013-11-14 22:55:00,37.3,31.7,29.80,WNW,297,0.0,0.0,80,0.00,,,0.01,Wunderground v.1.15,2013-11-15 04:55:00,
2013-11-14 23:00:00,36.6,31.6,29.80,WNW,297,0.0,0.0,82,0.00,,,0.01,Wunderground v.1.15,2013-11-15 05:00:00,
2013-11-14 23:01:00,36.6,31.6,29.80,WNW,297,0.0,0.0,82,0.00,,,0.01,Wunderground v.1.15,2013-11-15 05:01:00,
2013-11-14 23:02:00,36.5,31.5,29.80,WNW,297,0.0,0.0,82,0.00,,,0.01,Wunderground v.1.15,2013-11-15 05:02:00,
2013-11-14 23:03:00,36.5,31.8,29.80,WNW,297,0.0,0.0,83,0.00,,,0.01,Wunderground v.1.15,2013-11-15 05:03:00,
2013-11-14 23:08:00,36.2,31.8,29.80,WNW,297,0.0,0.0,84,0.00,,,0.01,Wunderground v.1.15,2013-11-15 05:08:00,
2013-11-14 23:13:00,36.0,31.9,29.80,WNW,297,0.0,0.0,85,0.00,,,0.01,Wunderground v.1.15,2013-11-15 05:13:00,
2013-11-14 23:18:00,35.8,32.0,29.81,SSW,212,1.0,3.0,86,0.00,,,0.01,Wunderground v.1.15,2013-11-15 05:18:00,
2013-11-14 23:23:00,35.3,31.8,29.81,SSW,212,0.0,3.0,87,0.00,,,0.01,Wunderground v.1.15,2013-11-15 05:23:00,
2013-11-14 23:28:00,35.0,31.8,29.81,SSW,212,0.0,3.0,88,0.00,,,0.01,Wunderground v.1.15,2013-11-15 05:28:00,
2013-11-14 23:33:00,35.0,32.1,29.80,SSW,212,0.0,0.0,89,0.00,,,0.01,Wunderground v.1.15,2013-11-15 05:33:00,
2013-11-14 23:38:00,35.0,32.1,29.80,SSW,212,0.0,0.0,89,0.00,,,0.01,Wunderground v.1.15,2013-11-15 05:38:00,
2013-11-14 23:43:00,35.2,32.6,29.80,SSW,212,0.0,0.0,90,0.00,,,0.01,Wunderground v.1.15,2013-11-15 05:43:00,
2013-11-14 23:48:00,35.0,32.1,29.80,SSW,212,0.0,0.0,89,0.00,,,0.01,Wunderground v.1.15,2013-11-15 05:48:00,
2013-11-14 23:53:00,34.9,32.3,29.80,SSW,212,0.0,0.0,90,0.00,,,0.01,Wunderground v.1.15,2013-11-15 05:53:00,
2013-11-14 23:58:00,34.7,32.1,29.80,SSW,212,0.0,0.0,90,0.00,,,0.01,Wunderground v.1.15,2013-11-15 05:58:00,